Welcome to Crazy Orc, l'antre du jeu de rôles à Lyon. Please login or sign up.

22 Mai 2024 à 22:33:05

Login with username, password and session length

Crazy Orc, l'antre du jeu de rôles à Lyon - Centre de statistiques

Statistiques générales

Total des membres:
798
Total des messages:
98541
Total des sujets:
4337
Total des catégories:
4
Membres en ligne:
45
Connexions simultanées:
808 - 21 Janvier 2020 à 20:55:59
En ligne aujourd'hui:
257
Total des pages vues:
44203504
Moyenne des inscriptions par jour:
0.26
Moyenne des messages par jour:
22.66
Moyenne des sujets par jour:
1.04
Total des sections:
40
Dernier membre:
Helzie
Moyenne d'utilisateurs connectés par jour:
54.91
Statistiques des sexes:
Ne pas afficher: 365
Masculin: 362
Féminin: 71
Pages vues en moyenne par jour:
7032.06

Top 10 des posteurs

ManuDevil
7077
GroumpH
5098
nunch
3857
LeDupontesque
3084
jules
3026
Mandy
2883
Scratchy
2766
MAO
2493
snake
1947
Le0
1878

Top lanceurs de sujets

nunch
600
Morithil
472
ManuDevil
292
GroumpH
246
Scratchy
132
MAO
110
LeDupontesque
106
jules
99
snake
92
CCCP
86

Le plus de temps en ligne

Mandy
133 j 19 h 59 m
GroumpH
112 j 9 h 16 m
CCCP
88 j 23 h 12 m
Nukeflow
73 j 8 h 19 m
ManuDevil
69 j 10 h 42 m
Felipe
61 j 12 h 19 m
dao
56 j 17 h 58 m
nunch
49 j 1 h 47 m
Patate
43 j 9 h 36 m
Rh
42 j 23 h 32 m

Les utilisateurs les plus aimés

ManuDevil
83
Arkana31
76
MJulien
26
Morithil
25
Phil
24
Lionhell
24
LeDupontesque
22
Patate
18
DeReel (il)
16
Haley Lektrik
12

Historique du forum (basé sur l'heure interne du forum)

Résumé annuel Nouveaux sujets Nouveaux messages Nouveaux membres Connexions simultanées Pages vues
* 2024 72 450 64 600 4899704
Mai 2024 13 50 3 520 778775
Avril 2024 16 93 16 600 1613449
2024-04-01 0 0 1 134 22446
2024-04-02 0 0 0 128 22041
2024-04-03 0 1 0 110 18239
2024-04-04 0 0 0 104 15553
2024-04-05 0 2 0 124 21575
2024-04-06 0 0 0 299 17672
2024-04-07 0 1 0 120 18915
2024-04-08 0 2 0 74 15674
2024-04-09 0 7 0 99 9323
2024-04-10 0 2 1 135 19562
2024-04-11 0 1 0 214 19788
2024-04-12 0 4 1 233 21288
2024-04-13 0 2 0 281 5327
2024-04-14 0 3 0 98 15884
2024-04-15 0 2 0 101 5973
2024-04-16 0 0 0 165 35811
2024-04-17 1 2 1 187 41234
2024-04-18 1 5 0 422 55482
2024-04-19 1 8 2 465 100118
2024-04-20 0 6 1 461 65181
2024-04-21 3 7 2 32 21077
2024-04-22 0 3 0 27 18212
2024-04-23 0 0 1 310 36970
2024-04-24 1 5 1 371 73563
2024-04-25 0 3 1 544 75063
2024-04-26 1 6 2 508 131927
2024-04-27 0 1 0 526 341688
2024-04-28 0 2 0 600 317111
2024-04-29 8 14 0 31 24563
2024-04-30 0 4 2 104 26189
Mars 2024 14 105 12 553 672303
2024-03-01 1 2 3 153 22735
2024-03-02 1 3 2 166 13436
2024-03-03 0 2 0 144 11718
2024-03-04 0 2 0 134 15969
2024-03-05 0 2 1 140 8507
2024-03-06 0 1 0 119 8270
2024-03-07 0 3 0 148 18395
2024-03-08 0 5 0 156 19534
2024-03-09 1 2 1 124 23621
2024-03-10 1 2 0 214 18205
2024-03-11 0 5 0 87 24436
2024-03-12 0 3 0 90 19113
2024-03-13 0 1 0 216 16487
2024-03-14 0 2 0 71 6791
2024-03-15 0 1 0 256 31828
2024-03-16 0 0 0 135 9865
2024-03-17 0 1 0 120 8083
2024-03-18 8 14 0 277 19607
2024-03-19 0 5 0 294 25051
2024-03-20 0 7 0 114 16432
2024-03-21 0 0 0 297 19867
2024-03-22 1 4 1 290 24084
2024-03-23 0 1 1 332 22917
2024-03-24 0 2 0 145 23610
2024-03-25 1 12 2 151 23899
2024-03-26 0 8 1 87 23803
2024-03-27 0 5 0 114 10908
2024-03-28 0 0 0 334 74010
2024-03-29 0 3 0 553 76512
2024-03-30 0 6 0 114 14261
2024-03-31 0 1 0 129 20349
Février 2024 17 116 25 349 567612
Janvier 2024 12 86 8 301 1267565
2024-01-01 0 3 1 176 26290
2024-01-02 0 2 0 73 27682
2024-01-03 0 1 0 141 58787
2024-01-04 0 1 0 75 27645
2024-01-05 2 7 2 95 5376
2024-01-06 0 1 1 81 5729
2024-01-07 0 5 0 274 36707
2024-01-08 0 1 0 113 31398
2024-01-09 0 0 0 100 23629
2024-01-10 1 2 0 127 59280
2024-01-11 0 5 0 130 66073
2024-01-12 0 3 0 150 70475
2024-01-13 0 5 0 137 60693
2024-01-14 0 3 0 111 49196
2024-01-15 0 0 0 154 60176
2024-01-16 0 9 0 151 70691
2024-01-17 0 6 0 132 34747
2024-01-18 0 2 1 179 33269
2024-01-19 0 1 0 150 41664
2024-01-20 0 0 0 180 7271
2024-01-21 0 1 0 168 51468
2024-01-22 0 0 2 155 56069
2024-01-23 0 0 0 174 63172
2024-01-24 0 0 0 178 84056
2024-01-25 0 0 1 178 69243
2024-01-26 8 9 0 201 31447
2024-01-27 0 2 0 249 31179
2024-01-28 1 6 0 196 31110
2024-01-29 0 2 0 162 29933
2024-01-30 0 5 0 301 12636
2024-01-31 0 4 0 156 10474
* 2023 193 1234 127 260 5271275
Décembre 2023 17 64 5 260 1399734
Novembre 2023 12 123 14 217 909538
Octobre 2023 21 141 12 187 333148
Septembre 2023 19 182 18 138 366302
Août 2023 8 42 7 130 236673
Juillet 2023 6 39 4 140 269774
Juin 2023 23 109 10 159 303581
2023-06-01 0 1 0 94 7752
2023-06-02 0 6 0 97 7194
2023-06-03 0 2 0 103 10051
2023-06-04 1 6 1 111 8104
2023-06-05 0 4 0 111 9173
2023-06-06 0 1 1 131 7225
2023-06-07 0 3 1 109 7310
2023-06-08 0 3 0 112 17451
2023-06-09 0 3 0 119 34658
2023-06-10 2 9 0 140 13252
2023-06-11 0 0 1 93 8027
2023-06-12 0 1 0 111 8737
2023-06-13 0 1 0 108 11551
2023-06-14 0 4 0 111 14152
2023-06-15 0 0 0 93 12664
2023-06-16 1 2 0 136 8981
2023-06-17 0 0 2 117 10912
2023-06-18 0 2 0 110 8835
2023-06-19 1 6 1 115 22130
2023-06-20 0 3 0 110 8765
2023-06-21 1 5 2 120 7670
2023-06-22 0 3 0 79 6701
2023-06-23 0 7 0 159 8623
2023-06-24 0 4 0 99 8140
2023-06-25 0 4 1 79 11473
2023-06-26 2 7 0 73 6805
2023-06-27 0 2 0 97 4789
2023-06-28 15 18 0 65 4268
2023-06-29 0 1 0 43 5113
2023-06-30 0 1 0 58 3075
Mai 2023 23 124 16 182 262587
Avril 2023 19 159 11 174 284480
Mars 2023 13 86 6 155 330966
2023-03-01 0 0 0 84 8401
2023-03-02 0 6 0 109 10900
2023-03-03 0 0 0 120 25778
2023-03-04 0 5 0 122 22133
2023-03-05 0 1 0 155 15497
2023-03-06 0 3 0 153 13626
2023-03-07 4 4 0 105 14908
2023-03-08 0 1 0 109 8862
2023-03-09 0 0 0 89 8490
2023-03-10 0 3 0 104 9212
2023-03-11 0 1 0 107 8617
2023-03-12 0 0 0 122 9581
2023-03-13 0 1 0 111 10004
2023-03-14 0 2 1 76 9442
2023-03-15 0 0 0 93 5943
2023-03-16 0 1 0 88 5878
2023-03-17 0 1 0 77 8602
2023-03-18 0 0 0 80 8425
2023-03-19 4 6 0 68 8712
2023-03-20 0 2 1 75 8688
2023-03-21 0 2 0 95 8948
2023-03-22 0 2 0 99 20406
2023-03-23 0 2 0 78 8092
2023-03-24 0 2 0 65 8630
2023-03-25 1 4 1 85 7572
2023-03-26 2 6 0 66 8609
2023-03-27 1 2 2 100 9322
2023-03-28 1 3 0 83 9442
2023-03-29 0 4 0 79 7999
2023-03-30 0 9 0 95 9942
2023-03-31 0 13 1 92 10305
Février 2023 13 62 5 165 274947
Janvier 2023 19 103 19 148 299545
* 2022 183 1154 96 261 3778792
Décembre 2022 9 37 1 161 306381
2022-12-01 0 1 0 124 12558
2022-12-02 0 3 0 110 10626
2022-12-03 0 1 0 74 8911
2022-12-04 0 1 0 91 9844
2022-12-05 0 1 0 90 12386
2022-12-06 0 0 0 109 9014
2022-12-07 0 1 0 149 9179
2022-12-08 0 1 0 161 15170
2022-12-09 0 1 0 125 14847
2022-12-10 0 3 0 117 14570
2022-12-11 0 0 0 128 13579
2022-12-12 6 7 0 134 9225
2022-12-13 0 0 0 119 7993
2022-12-14 0 8 0 132 7472
2022-12-15 0 1 0 69 4549
2022-12-16 0 1 0 73 4937
2022-12-17 0 2 0 77 5546
2022-12-18 0 0 0 69 5377
2022-12-19 0 0 0 85 5133
2022-12-20 0 0 0 71 4025
2022-12-21 0 0 0 100 8616
2022-12-22 0 0 0 93 7791
2022-12-23 1 1 1 92 10738
2022-12-24 0 0 0 80 23907
2022-12-25 0 0 0 79 8747
2022-12-26 0 0 0 73 8646
2022-12-27 0 1 0 66 11725
2022-12-28 0 0 0 63 9113
2022-12-29 0 0 0 85 10820
2022-12-30 0 0 0 76 11189
2022-12-31 2 3 0 80 10148
Novembre 2022 16 103 6 261 350274
Octobre 2022 11 120 17 208 290108
Septembre 2022 17 115 6 258 357415
Août 2022 15 108 9 147 318817
Juillet 2022 13 69 4 208 308045
Juin 2022 14 76 4 62 333112
Mai 2022 16 118 8 91 339244
Avril 2022 18 133 12 61 254691
Mars 2022 15 123 8 65 281935
Février 2022 17 84 9 58 314588
Janvier 2022 22 68 12 70 324182
* 2021 129 756 53 338 4376522
Décembre 2021 8 37 0 129 661064
Novembre 2021 13 99 4 153 262314
Octobre 2021 20 208 15 159 298103
Septembre 2021 24 171 10 280 285455
Août 2021 11 33 7 73 231609
Juillet 2021 6 8 2 81 305173
Juin 2021 17 31 2 135 311168
2021-06-01 6 7 0 65 11550
2021-06-02 0 0 0 77 12253
2021-06-03 0 1 0 103 12092
2021-06-04 0 0 0 93 8171
2021-06-05 0 0 0 104 7555
2021-06-06 0 0 0 95 7530
2021-06-07 0 0 0 79 8779
2021-06-08 1 3 0 79 10509
2021-06-09 0 1 0 90 8325
2021-06-10 0 0 0 88 8468
2021-06-11 0 0 0 93 9960
2021-06-12 0 1 0 92 10963
2021-06-13 1 1 1 86 7407
2021-06-14 0 0 0 105 6206
2021-06-15 0 0 0 82 32410
2021-06-16 4 6 0 83 12753
2021-06-17 0 0 0 96 11769
2021-06-18 0 2 0 101 7377
2021-06-19 0 1 0 135 12899
2021-06-20 0 0 0 131 10996
2021-06-21 3 4 1 131 11219
2021-06-22 0 0 0 101 8997
2021-06-23 0 1 0 93 7594
2021-06-24 0 0 0 103 9103
2021-06-25 0 0 0 80 9706
2021-06-26 0 0 0 79 9521
2021-06-27 0 0 0 84 11194
2021-06-28 0 0 0 75 8473
2021-06-29 2 2 0 83 8668
2021-06-30 0 1 0 71 8721
Mai 2021 3 31 4 268 597777
Avril 2021 10 51 6 287 308355
2021-04-01 1 5 1 73 10500
2021-04-02 0 2 0 71 8047
2021-04-03 0 0 0 59 7541
2021-04-04 1 3 1 56 9206
2021-04-05 0 0 0 59 8809
2021-04-06 0 1 0 59 6737
2021-04-07 0 4 0 63 6731
2021-04-08 0 0 0 64 9161
2021-04-09 0 0 0 65 8780
2021-04-10 0 0 0 64 8686
2021-04-11 0 1 0 59 9738
2021-04-12 0 2 0 63 9761
2021-04-13 1 3 1 71 11667
2021-04-14 0 4 0 287 14963
2021-04-15 0 0 0 74 11393
2021-04-16 0 2 0 68 9533
2021-04-17 0 0 0 68 7869
2021-04-18 0 0 0 73 6458
2021-04-19 0 1 0 67 6158
2021-04-20 3 3 1 76 9885
2021-04-21 1 8 1 91 8256
2021-04-22 0 5 0 132 10159
2021-04-23 0 0 0 145 14980
2021-04-24 1 1 0 132 12209
2021-04-25 0 2 0 142 12832
2021-04-26 1 2 0 116 9593
2021-04-27 0 1 0 118 9289
2021-04-28 0 0 1 107 12148
2021-04-29 0 0 0 107 9489
2021-04-30 1 1 0 104 27777
Mars 2021 7 24 1 308 444900
2021-03-01 0 0 0 72 8645
2021-03-02 1 2 0 62 7066
2021-03-03 0 1 0 58 5404
2021-03-04 0 0 1 61 5201
2021-03-05 0 0 0 63 8432
2021-03-06 0 0 0 60 4862
2021-03-07 0 1 0 50 4615
2021-03-08 0 0 0 55 4461
2021-03-09 0 0 0 58 6240
2021-03-10 0 0 0 65 8568
2021-03-11 1 3 0 62 4993
2021-03-12 0 1 0 55 5378
2021-03-13 0 0 0 60 4371
2021-03-14 0 1 0 65 5377
2021-03-15 1 1 0 69 7164
2021-03-16 0 1 0 98 8406
2021-03-17 1 6 0 308 16132
2021-03-18 0 0 0 75 162827
2021-03-19 0 0 0 83 38605
2021-03-20 0 2 0 68 10275
2021-03-21 0 0 0 72 11763
2021-03-22 0 0 0 54 8930
2021-03-23 0 0 0 94 11374
2021-03-24 0 0 0 97 12163
2021-03-25 0 0 0 117 11569
2021-03-26 0 1 0 127 11884
2021-03-27 0 1 0 104 7707
2021-03-28 0 0 0 89 8951
2021-03-29 0 0 0 77 10399
2021-03-30 0 0 0 73 11056
2021-03-31 3 3 0 77 12082
Février 2021 5 29 2 338 223056
Janvier 2021 5 34 0 322 447548
2021-01-01 0 0 0 65 8853
2021-01-02 0 0 0 61 7510
2021-01-03 0 0 0 56 8223
2021-01-04 2 2 0 67 8142
2021-01-05 0 3 0 56 8281
2021-01-06 0 4 0 55 5830
2021-01-07 0 2 0 55 4092
2021-01-08 0 2 0 53 3871
2021-01-09 0 0 0 70 5919
2021-01-10 0 0 0 78 9200
2021-01-11 1 2 0 66 7730
2021-01-12 0 1 0 71 7978
2021-01-13 0 1 0 64 8287
2021-01-14 0 2 0 80 7890
2021-01-15 0 0 0 85 9193
2021-01-16 0 0 0 83 10085
2021-01-17 0 3 0 81 9818
2021-01-18 0 5 0 82 10941
2021-01-19 1 1 0 86 9009
2021-01-20 0 2 0 322 13536
2021-01-21 0 1 0 81 24497
2021-01-22 0 0 0 79 141457
2021-01-23 0 0 0 85 10393
2021-01-24 0 0 0 84 11242
2021-01-25 1 1 0 80 10151
2021-01-26 0 0 0 93 10012
2021-01-27 0 1 0 88 10831
2021-01-28 0 0 0 87 11541
2021-01-29 0 1 0 81 9358
2021-01-30 0 0 0 72 23925
2021-01-31 0 0 0 67 19753
* 2020 206 1716 105 808 4713463
Décembre 2020 6 38 2 320 310487
Novembre 2020 12 97 3 352 464426
2020-11-01 0 1 0 116 10715
2020-11-02 2 3 0 125 9649
2020-11-03 0 7 0 102 10433
2020-11-04 0 0 0 95 11152
2020-11-05 0 3 0 92 11950
2020-11-06 1 4 0 86 9328
2020-11-07 0 9 0 79 13532
2020-11-08 0 4 0 97 10296
2020-11-09 1 6 0 85 10894
2020-11-10 0 5 0 79 6851
2020-11-11 0 1 0 83 6495
2020-11-12 0 1 0 86 10836
2020-11-13 0 1 0 80 9519
2020-11-14 0 0 0 72 8283
2020-11-15 0 2 0 77 8335
2020-11-16 3 10 1 78 9396
2020-11-17 0 1 0 104 10915
2020-11-18 1 2 0 352 16974
2020-11-19 0 4 0 95 11042
2020-11-20 1 4 2 87 10172
2020-11-21 0 1 0 87 9318
2020-11-22 1 7 0 81 8520
2020-11-23 0 2 0 86 12898
2020-11-24 0 3 0 101 11997
2020-11-25 0 2 0 113 14003
2020-11-26 1 3 0 108 12703
2020-11-27 0 6 0 90 63154
2020-11-28 0 1 0 92 102895
2020-11-29 0 2 0 105 11784
2020-11-30 1 2 0 116 10387
Octobre 2020 21 169 7 346 497422
Septembre 2020 30 356 15 133 325183
Août 2020 16 147 7 163 471897
Juillet 2020 16 77 2 100 345760
Juin 2020 17 60 5 127 452817
2020-06-01 0 1 0 97 7843
2020-06-02 7 8 0 99 6624
2020-06-03 0 0 0 116 9483
2020-06-04 0 0 0 127 10949
2020-06-05 0 0 0 54 8472
2020-06-06 0 0 0 60 11941
2020-06-07 0 3 0 60 62107
2020-06-08 0 1 1 59 116791
2020-06-09 0 1 0 67 15021
2020-06-10 2 6 0 51 11623
2020-06-11 0 0 0 50 8819
2020-06-12 0 0 0 54 9812
2020-06-13 0 0 1 57 9517
2020-06-14 0 1 0 54 10890
2020-06-15 2 5 0 50 11230
2020-06-16 0 3 0 66 11587
2020-06-17 0 0 1 53 7877
2020-06-18 0 0 0 53 7889
2020-06-19 0 0 0 47 8061
2020-06-20 0 1 0 49 10663
2020-06-21 0 0 0 49 8505
2020-06-22 0 2 0 51 8058
2020-06-23 0 1 0 50 9272
2020-06-24 1 7 1 59 9508
2020-06-25 0 4 0 53 9909
2020-06-26 0 1 0 53 10161
2020-06-27 0 0 1 58 11373
2020-06-28 0 0 0 63 8637
2020-06-29 5 12 0 67 8575
2020-06-30 0 3 0 56 11620
Mai 2020 7 22 3 295 321652
Avril 2020 10 47 1 189 300030
2020-04-01 1 10 0 107 11966
2020-04-02 0 2 0 114 10310
2020-04-03 0 1 0 103 9502
2020-04-04 0 2 0 128 9178
2020-04-05 0 0 0 114 10662
2020-04-06 4 7 0 109 8396
2020-04-07 0 3 0 117 8692
2020-04-08 0 0 0 104 13455
2020-04-09 0 1 0 114 10600
2020-04-10 0 0 0 112 7011
2020-04-11 0 0 0 101 8460
2020-04-12 1 2 0 120 10038
2020-04-13 0 1 0 108 11715
2020-04-14 0 1 0 107 13383
2020-04-15 0 1 0 93 9161
2020-04-16 1 2 0 99 8579
2020-04-17 0 0 0 106 6755
2020-04-18 0 2 0 96 7568
2020-04-19 0 0 0 113 5193
2020-04-20 0 0 0 189 9427
2020-04-21 0 0 0 183 10619
2020-04-22 0 1 0 157 9559
2020-04-23 1 2 0 99 9058
2020-04-24 0 5 0 99 9065
2020-04-25 0 0 0 97 8270
2020-04-26 0 0 0 94 26246
2020-04-27 0 0 1 93 9286
2020-04-28 1 2 0 100 8564
2020-04-29 1 2 0 105 9760
2020-04-30 0 0 0 120 9552
Mars 2020 24 253 3 199 467854
2020-03-01 0 7 0 104 10346
2020-03-02 0 5 0 126 6471
2020-03-03 3 17 1 107 4913
2020-03-04 0 10 0 116 5122
2020-03-05 1 12 0 143 8779
2020-03-06 0 9 0 144 11988
2020-03-07 0 2 0 123 11124
2020-03-08 0 5 0 122 13134
2020-03-09 0 10 0 117 13459
2020-03-10 2 5 0 114 11164
2020-03-11 0 4 0 105 8274
2020-03-12 0 10 0 199 11093
2020-03-13 0 9 0 186 12284
2020-03-14 1 11 0 189 12386
2020-03-15 1 12 1 189 11665
2020-03-16 1 3 0 173 10318
2020-03-17 0 8 0 116 9643
2020-03-18 0 2 0 107 8287
2020-03-19 0 4 0 105 10639
2020-03-20 0 0 0 116 10883
2020-03-21 0 4 0 114 10354
2020-03-22 0 0 0 119 9230
2020-03-23 3 9 0 112 6679
2020-03-24 0 7 0 113 47441
2020-03-25 0 10 0 107 140101
2020-03-26 5 9 0 119 6876
2020-03-27 1 6 0 154 6818
2020-03-28 1 16 0 114 7190
2020-03-29 2 20 0 105 6840
2020-03-30 1 13 0 121 11552
2020-03-31 2 14 1 117 12801
Février 2020 18 171 9 323 281798
Janvier 2020 29 279 48 808 474137
* 2019 246 3411 313 446 3308531
Décembre 2019 18 159 26 446 351248
Novembre 2019 16 245 33 325 524135
2019-11-01 1 5 3 104 6570
2019-11-02 0 8 0 112 5937
2019-11-03 5 17 2 103 5135
2019-11-04 0 13 4 108 4364
2019-11-05 1 7 1 101 4644
2019-11-06 0 19 0 100 7049
2019-11-07 0 16 0 107 5602
2019-11-08 0 7 2 100 5473
2019-11-09 0 10 2 115 4378
2019-11-10 0 14 1 113 5596
2019-11-11 2 6 0 98 4288
2019-11-12 0 12 0 131 4467
2019-11-13 0 9 1 114 5320
2019-11-14 1 6 1 125 6683
2019-11-15 1 13 1 120 4926
2019-11-16 0 8 0 163 6256
2019-11-17 0 3 0 134 5852
2019-11-18 0 1 1 107 5431
2019-11-19 0 9 4 99 4758
2019-11-20 1 11 1 102 3814
2019-11-21 0 6 0 117 9376
2019-11-22 0 8 0 112 11663
2019-11-23 0 6 0 101 8399
2019-11-24 0 4 1 109 9641
2019-11-25 0 2 2 112 8759
2019-11-26 2 2 0 114 56347
2019-11-27 2 6 1 111 123100
2019-11-28 0 3 1 112 10114
2019-11-29 0 8 2 110 67835
2019-11-30 0 6 2 325 112358
Octobre 2019 24 272 59 121 189762
Septembre 2019 25 386 54 141 376708
Août 2019 22 257 31 122 225760
Juillet 2019 24 281 62 149 190301
Juin 2019 11 171 3 112 246519
2019-06-01 0 1 0 103 2817
2019-06-02 0 1 0 97 2941
2019-06-03 0 3 0 91 6524
2019-06-04 0 14 0 87 11150
2019-06-05 0 8 0 90 9570
2019-06-06 0 5 0 99 10447
2019-06-07 1 16 1 109 8522
2019-06-08 0 5 1 93 5588
2019-06-09 0 8 0 92 4131
2019-06-10 1 8 0 93 4120
2019-06-11 1 5 1 105 29392
2019-06-12 0 4 0 102 13902
2019-06-13 0 1 0 98 5417
2019-06-14 0 5 0 104 10181
2019-06-15 0 0 0 99 11438
2019-06-16 0 4 0 93 9146
2019-06-17 1 3 0 99 7622
2019-06-18 0 0 0 104 9803
2019-06-19 2 4 0 102 8936
2019-06-20 0 2 0 106 7574
2019-06-21 0 5 0 100 7703
2019-06-22 0 6 0 103 7936
2019-06-23 0 9 0 108 6964
2019-06-24 4 13 0 102 5006
2019-06-25 0 4 0 103 3748
2019-06-26 0 6 0 112 7551
2019-06-27 0 10 0 104 6651
2019-06-28 0 10 0 93 7044
2019-06-29 0 3 0 100 8017
2019-06-30 1 8 0 102 6678
Mai 2019 23 311 10 167 218891
2019-05-01 0 0 0 42 7579
2019-05-02 1 11 0 51 5081
2019-05-03 1 30 0 46 4550
2019-05-04 2 30 2 68 9688
2019-05-05 2 23 0 62 9610
2019-05-06 0 14 0 63 6169
2019-05-07 0 7 0 52 3798
2019-05-08 1 9 0 91 6925
2019-05-09 1 9 1 98 10005
2019-05-10 1 8 1 45 9905
2019-05-11 7 14 0 46 10729
2019-05-12 0 10 1 136 10508
2019-05-13 1 10 0 167 10276
2019-05-14 0 1 1 165 13350
2019-05-15 0 11 1 129 11534
2019-05-16 0 18 0 132 11759
2019-05-17 0 8 0 99 8749
2019-05-18 1 12 0 104 3904
2019-05-19 1 4 0 27 2513
2019-05-20 2 14 1 30 3181
2019-05-21 0 11 0 29 2830
2019-05-22 0 8 0 121 4397
2019-05-23 0 10 0 120 5497
2019-05-24 0 3 0 115 10400
2019-05-25 0 10 0 104 7847
2019-05-26 0 5 0 102 6183
2019-05-27 2 9 0 107 8783
2019-05-28 0 8 0 98 4284
2019-05-29 0 2 1 102 3072
2019-05-30 0 0 0 91 2845
2019-05-31 0 2 1 93 2940
Avril 2019 21 294 9 174 311459
2019-04-01 1 11 0 174 7945
2019-04-02 3 24 0 122 7494
2019-04-03 1 14 0 142 9858
2019-04-04 0 8 0 139 10089
2019-04-05 0 2 0 133 12161
2019-04-06 1 12 1 133 7608
2019-04-07 0 6 0 120 7430
2019-04-08 1 14 1 135 8563
2019-04-09 0 13 0 137 16179
2019-04-10 2 17 0 144 19838
2019-04-11 1 14 1 138 21613
2019-04-12 0 14 0 119 19438
2019-04-13 1 11 3 51 7170
2019-04-14 0 4 0 64 8623
2019-04-15 0 0 0 61 10243
2019-04-16 0 1 0 55 8411
2019-04-17 0 2 0 72 6278
2019-04-18 1 9 0 62 9286
2019-04-19 2 8 0 70 7179
2019-04-20 0 5 0 129 4258
2019-04-21 0 11 1 152 3979
2019-04-22 2 7 0 170 5151
2019-04-23 0 9 0 59 8482
2019-04-24 0 17 0 78 9241
2019-04-25 1 13 2 57 13826
2019-04-26 0 6 0 58 15753
2019-04-27 0 2 0 47 12881
2019-04-28 3 17 0 58 10108
2019-04-29 1 20 0 57 11176
2019-04-30 0 3 0 58 11198
Mars 2019 22 372 16 142 344146
2019-03-01 0 30 0 102 3220
2019-03-02 0 23 0 102 3097
2019-03-03 0 4 0 99 2763
2019-03-04 0 5 0 105 2518
2019-03-05 0 11 0 99 3314
2019-03-06 0 11 1 97 5983
2019-03-07 1 6 2 102 6254
2019-03-08 1 24 1 100 9845
2019-03-09 1 11 1 104 9974
2019-03-10 0 18 0 109 12925
2019-03-11 3 18 1 124 22284
2019-03-12 0 14 0 120 15724
2019-03-13 1 23 1 125 13212
2019-03-14 0 7 1 132 13861
2019-03-15 2 17 1 112 12323
2019-03-16 0 6 1 135 11288
2019-03-17 0 6 0 129 10798
2019-03-18 1 8 0 122 10562
2019-03-19 1 7 0 126 9470
2019-03-20 1 16 1 122 10084
2019-03-21 1 12 1 128 13887
2019-03-22 0 4 0 129 13984
2019-03-23 2 9 0 123 14498
2019-03-24 4 13 0 129 36957
2019-03-25 0 14 0 134 17651
2019-03-26 1 11 1 126 9572
2019-03-27 0 4 0 56 8627
2019-03-28 0 14 1 142 8864
2019-03-29 0 5 0 126 11607
2019-03-30 0 2 0 131 10223
2019-03-31 2 19 2 129 8777
Février 2019 18 288 4 110 142132
2019-02-01 1 22 0 98 4055
2019-02-02 1 7 0 98 9323
2019-02-03 2 8 0 106 10729
2019-02-04 0 11 0 104 6293
2019-02-05 0 10 0 85 1711
2019-02-06 0 6 0 85 3018
2019-02-07 0 13 0 90 2793
2019-02-08 0 19 0 86 3074
2019-02-09 0 4 0 83 2745
2019-02-10 0 4 0 89 3245
2019-02-11 0 1 0 76 1985
2019-02-12 0 6 0 79 2434
2019-02-13 0 2 0 83 2736
2019-02-14 0 3 0 72 2494
2019-02-15 1 6 0 79 5880
2019-02-16 2 17 0 86 8424
2019-02-17 2 16 1 105 10226
2019-02-18 5 10 0 96 10597
2019-02-19 0 9 0 102 8445
2019-02-20 0 8 0 104 11557
2019-02-21 0 5 0 96 5694
2019-02-22 0 19 0 110 5265
2019-02-23 1 14 0 96 4284
2019-02-24 2 18 0 100 4059
2019-02-25 0 3 2 97 3055
2019-02-26 1 18 0 101 2711
2019-02-27 0 8 0 100 2345
2019-02-28 0 21 1 103 2955
Janvier 2019 22 375 6 113 187470
* 2018 338 6176 81 641 2624946
Décembre 2018 43 306 8 253 421582
Novembre 2018 26 467 9 641 383363
2018-11-01 1 9 1 134 8941
2018-11-02 0 12 0 138 13320
2018-11-03 1 7 1 144 15011
2018-11-04 5 36 0 176 20866
2018-11-05 2 19 0 163 16221
2018-11-06 1 18 1 130 15015
2018-11-07 0 18 0 239 17530
2018-11-08 1 13 1 200 11015
2018-11-09 0 18 0 265 17559
2018-11-10 1 13 1 262 23662
2018-11-11 0 10 0 161 21706
2018-11-12 1 22 0 274 33147
2018-11-13 0 25 0 425 19047
2018-11-14 1 18 1 550 12156
2018-11-15 1 8 1 641 16863
2018-11-16 1 14 0 168 16611
2018-11-17 0 5 1 577 19696
2018-11-18 0 5 0 184 9470
2018-11-19 1 10 1 373 15763
2018-11-20 1 23 0 257 11354
2018-11-21 2 8 0 110 5798
2018-11-22 0 9 0 89 5367
2018-11-23 1 22 0 92 4528
2018-11-24 1 21 0 30 2309
2018-11-25 2 13 0 43 4520
2018-11-26 2 26 0 34 2339
2018-11-27 0 21 0 42 2307
2018-11-28 0 20 0 116 5597
2018-11-29 0 9 0 117 6218
2018-11-30 0 15 0 109 9427
Octobre 2018 34 527 6 321 248725
Septembre 2018 34 641 10 127 216306
2018-09-01 0 20 0 24 4424
2018-09-02 0 20 0 65 4793
2018-09-03 3 22 0 85 7578
2018-09-04 0 24 0 84 8791
2018-09-05 1 20 0 84 9905
2018-09-06 0 36 1 83 11031
2018-09-07 1 20 0 87 10613
2018-09-08 5 19 0 83 13818
2018-09-09 0 26 0 92 9656
2018-09-10 0 27 1 20 3224
2018-09-11 4 21 1 27 4264
2018-09-12 1 51 1 24 2429
2018-09-13 3 46 2 20 7949
2018-09-14 1 20 0 91 11369
2018-09-15 0 14 0 95 9802
2018-09-16 1 34 0 104 6636
2018-09-17 0 20 0 94 6787
2018-09-18 0 13 0 99 5082
2018-09-19 1 16 0 101 8725
2018-09-20 3 10 1 105 5461
2018-09-21 2 27 1 93 5926
2018-09-22 1 28 0 115 6599
2018-09-23 0 15 0 102 6921
2018-09-24 1 14 1 103 6887
2018-09-25 0 17 0 114 7190
2018-09-26 1 10 0 111 7736
2018-09-27 0 14 0 116 7667
2018-09-28 4 13 0 127 6767
2018-09-29 0 7 1 99 2850
2018-09-30 1 17 0 36 5426
Août 2018 32 583 16 101 188648
Juillet 2018 21 386 3 104 182475
Juin 2018 31 442 3 110 213303
Mai 2018 21 422 4 107 174393
Avril 2018 25 564 5 104 159849
Mars 2018 20 634 4 96 152933
Février 2018 25 631 7 93 121912
2018-02-01 0 25 0 84 3932
2018-02-02 0 16 0 93 3849
2018-02-03 0 20 0 86 5032
2018-02-04 1 17 0 81 4606
2018-02-05 1 23 1 78 4124
2018-02-06 0 8 0 76 3893
2018-02-07 1 14 0 81 4611
2018-02-08 4 44 2 87 4610
2018-02-09 0 14 0 88 11329
2018-02-10 0 25 0 82 9515
2018-02-11 2 25 0 79 5144
2018-02-12 4 65 1 80 5149
2018-02-13 1 57 0 84 5260
2018-02-14 0 11 0 74 3020
2018-02-15 0 10 0 76 4605
2018-02-16 0 13 0 79 4615
2018-02-17 0 8 0 67 2499
2018-02-18 2 38 0 71 5101
2018-02-19 0 10 0 77 4192
2018-02-20 0 16 1 64 3560
2018-02-21 0 12 1 73 4039
2018-02-22 0 25 0 68 4479
2018-02-23 1 18 0 62 3451
2018-02-24 0 14 0 64 2075
2018-02-25 0 20 0 22 1521
2018-02-26 4 33 0 35 2611
2018-02-27 4 32 1 18 2068
2018-02-28 0 18 0 19 3022
Janvier 2018 26 573 6 94 161457
* 2017 346 6100 56 180 1675168
Décembre 2017 37 499 6 91 136063
Novembre 2017 37 675 6 93 169670
Octobre 2017 15 426 2 93 151449
Septembre 2017 28 548 5 94 135543
2017-09-01 0 19 0 85 4606
2017-09-02 6 27 1 81 5694
2017-09-03 0 13 0 80 4704
2017-09-04 0 16 0 73 3541
2017-09-05 1 31 0 70 4047
2017-09-06 0 12 0 74 8718
2017-09-07 1 10 0 72 3635
2017-09-08 2 11 0 73 3838
2017-09-09 0 25 0 73 3496
2017-09-10 1 20 1 77 4556
2017-09-11 3 16 0 94 4101
2017-09-12 0 23 0 80 4866
2017-09-13 1 11 1 76 4485
2017-09-14 0 12 0 79 4369
2017-09-15 2 27 1 85 4589
2017-09-16 1 10 1 81 3899
2017-09-17 0 28 0 85 4424
2017-09-18 2 29 0 79 5214
2017-09-19 1 25 0 76 4323
2017-09-20 2 9 0 74 4217
2017-09-21 1 13 0 75 4677
2017-09-22 0 19 0 77 3928
2017-09-23 0 15 0 71 4378
2017-09-24 1 23 0 75 4483
2017-09-25 0 32 0 82 4657
2017-09-26 0 21 0 81 4174
2017-09-27 0 13 0 76 4562
2017-09-28 0 8 0 83 4632
2017-09-29 3 23 0 79 4537
2017-09-30 0 7 0 77 4193
Août 2017 29 384 6 99 148097
Juillet 2017 25 490 5 87 176472
2017-07-01 0 15 0 70 4062
2017-07-02 0 3 1 65 3539
2017-07-03 1 23 1 62 3836
2017-07-04 1 26 0 72 3952
2017-07-05 1 10 0 61 4350
2017-07-06 1 29 0 87 4569
2017-07-07 0 20 1 77 4031
2017-07-08 1 22 0 69 5874
2017-07-09 0 19 0 69 7487
2017-07-10 0 17 0 72 5879
2017-07-11 1 4 0 67 7492
2017-07-12 0 5 0 71 6813
2017-07-13 1 4 0 79 25553
2017-07-14 0 5 0 87 5690
2017-07-15 0 5 0 72 4170
2017-07-16 2 18 0 78 4326
2017-07-17 5 25 0 73 4689
2017-07-18 0 17 1 76 4440
2017-07-19 1 19 0 83 3965
2017-07-20 0 12 0 76 4047
2017-07-21 1 19 1 75 5666
2017-07-22 1 10 0 72 4430
2017-07-23 2 22 0 77 5427
2017-07-24 0 21 0 83 6448
2017-07-25 1 16 0 69 4956
2017-07-26 3 31 0 84 5953
2017-07-27 0 21 0 75 5107
2017-07-28 0 12 0 70 6063
2017-07-29 0 18 0 72 5667
2017-07-30 1 9 0 67 4294
2017-07-31 1 13 0 68 3697
Juin 2017 33 603 4 89 156248
Mai 2017 26 470 2 99 181189
2017-05-01 0 10 0 60 6651
2017-05-02 0 5 0 93 7583
2017-05-03 1 12 0 87 7979
2017-05-04 2 21 0 78 8358
2017-05-05 1 14 0 71 7427
2017-05-06 0 21 0 72 7076
2017-05-07 1 22 0 77 6140
2017-05-08 0 10 0 72 5729
2017-05-09 0 14 1 74 7689
2017-05-10 2 16 0 73 4488
2017-05-11 0 12 0 70 3188
2017-05-12 1 38 0 68 5384
2017-05-13 0 4 0 59 5267
2017-05-14 3 17 0 72 6766
2017-05-15 0 12 0 71 5041
2017-05-16 0 23 0 61 5057
2017-05-17 2 22 0 99 5471
2017-05-18 2 31 0 64 6069
2017-05-19 0 19 0 63 4606
2017-05-20 0 8 0 72 6432
2017-05-21 2 11 0 63 5595
2017-05-22 1 16 0 64 4783
2017-05-23 0 24 0 64 4472
2017-05-24 1 8 0 79 4750
2017-05-25 0 4 0 61 4617
2017-05-26 0 11 0 63 7032
2017-05-27 6 19 0 61 5588
2017-05-28 0 11 0 72 3450
2017-05-29 0 6 0 69 8108
2017-05-30 1 19 1 64 5031
2017-05-31 0 10 0 72 5362
Avril 2017 31 490 5 180 139896
Mars 2017 27 432 3 119 90981
Février 2017 31 587 7 87 74924
Janvier 2017 27 496 5 80 114636
* 2016 389 7721 79 245 2075605
Décembre 2016 34 533 2 170 118206
Novembre 2016 34 586 6 245 122991
Octobre 2016 43 726 7 191 160217
2016-10-01 0 2 0 77 5321
2016-10-02 1 21 0 58 3379
2016-10-03 0 20 0 65 4029
2016-10-04 4 16 0 54 5012
2016-10-05 2 26 1 54 8464
2016-10-06 2 23 0 54 4844
2016-10-07 3 30 0 58 4198
2016-10-08 0 20 0 79 5202
2016-10-09 2 16 0 139 7188
2016-10-10 0 23 0 67 5666
2016-10-11 5 27 0 65 5851
2016-10-12 1 57 0 55 5424
2016-10-13 4 46 1 60 5322
2016-10-14 3 27 0 63 4776
2016-10-15 6 27 0 191 5482
2016-10-16 1 37 1 83 5433
2016-10-17 3 23 0 82 4868
2016-10-18 0 9 0 66 3634
2016-10-19 0 13 1 64 4158
2016-10-20 0 22 1 56 15180
2016-10-21 0 14 0 55 4340
2016-10-22 1 19 0 57 3387
2016-10-23 0 3 0 30 2919
2016-10-24 1 40 1 78 4044
2016-10-25 2 31 0 76 4859
2016-10-26 0 26 0 72 5816
2016-10-27 0 20 0 72 3954
2016-10-28 0 19 0 70 4387
2016-10-29 0 26 0 63 4333
2016-10-30 1 16 0 66 4530
2016-10-31 1 27 1 77 4217
Septembre 2016 26 657 9 85 157449
2016-09-01 0 6 0 74 4766
2016-09-02 0 11 0 20 3957
2016-09-03 2 15 0 24 5392
2016-09-04 2 24 2 27 6016
2016-09-05 1 48 0 60 6378
2016-09-06 0 19 0 64 16148
2016-09-07 0 25 0 29 5865
2016-09-08 0 8 1 28 2521
2016-09-09 2 25 2 66 4139
2016-09-10 1 13 0 57 3591
2016-09-11 0 20 0 52 3703
2016-09-12 5 46 2 56 3958
2016-09-13 2 32 0 56 4310
2016-09-14 1 36 0 57 3961
2016-09-15 0 20 0 54 3639
2016-09-16 0 8 0 85 5882
2016-09-17 1 17 1 63 4479
2016-09-18 1 37 0 55 4935
2016-09-19 1 18 0 55 4541
2016-09-20 2 43 0 53 6073
2016-09-21 0 23 0 43 3742
2016-09-22 1 18 1 53 4611
2016-09-23 0 15 0 70 4243
2016-09-24 0 18 0 70 5283
2016-09-25 2 19 0 59 15111
2016-09-26 0 12 0 62 4202
2016-09-27 1 10 0 55 4151
2016-09-28 1 28 0 55 4096
2016-09-29 0 24 0 58 3581
2016-09-30 0 19 0 55 4175
Août 2016 31 721 9 114 169873
Juillet 2016 19 513 3 58 166690
Juin 2016 30 565 5 53 211715
Mai 2016 40 1116 8 94 166514
Avril 2016 27 529 7 65 155208
2016-04-01 3 38 2 30 3618
2016-04-02 0 23 1 23 3917
2016-04-03 3 45 1 65 6292
2016-04-04 3 45 0 31 4738
2016-04-05 0 6 0 26 3350
2016-04-06 0 15 0 22 4462
2016-04-07 1 13 1 21 3485
2016-04-08 0 9 0 23 3328
2016-04-09 2 17 0 24 3870
2016-04-10 0 13 0 25 4267
2016-04-11 0 19 0 55 6024
2016-04-12 1 16 0 59 14106
2016-04-13 4 14 0 59 11237
2016-04-14 0 14 0 52 5426
2016-04-15 1 14 0 20 3457
2016-04-16 0 7 0 50 5198
2016-04-17 0 2 0 49 5204
2016-04-18 1 17 1 20 4013
2016-04-19 0 11 1 20 3807
2016-04-20 1 17 0 23 3488
2016-04-21 0 16 0 25 3419
2016-04-22 0 21 0 37 4063
2016-04-23 0 8 0 36 4166
2016-04-24 1 14 0 37 5654
2016-04-25 2 25 0 65 6602
2016-04-26 0 16 0 63 5983
2016-04-27 0 20 0 49 6244
2016-04-28 1 12 0 54 6223
2016-04-29 3 29 0 22 4065
2016-04-30 0 13 0 56 5502
Mars 2016 35 513 11 88 224056
2016-03-01 0 6 0 84 7045
2016-03-02 1 11 1 83 17011
2016-03-03 0 7 0 79 6329
2016-03-04 1 18 0 71 5591
2016-03-05 0 8 0 68 5241
2016-03-06 4 24 2 77 5361
2016-03-07 0 24 0 76 5677
2016-03-08 0 25 0 79 5918
2016-03-09 1 32 0 88 5988
2016-03-10 1 14 0 68 5103
2016-03-11 2 24 0 71 5694
2016-03-12 1 12 2 75 5118
2016-03-13 2 17 0 76 5419
2016-03-14 1 25 0 24 3103
2016-03-15 1 18 0 24 3559
2016-03-16 1 11 0 19 2822
2016-03-17 0 11 0 18 2814
2016-03-18 0 15 0 74 8907
2016-03-19 1 8 2 84 11132
2016-03-20 4 42 2 23 4754
2016-03-21 0 17 0 86 21637
2016-03-22 2 11 0 31 3560
2016-03-23 0 6 1 80 6777
2016-03-24 2 23 0 70 6789
2016-03-25 1 7 0 63 5275
2016-03-26 0 10 0 75 7097
2016-03-27 1 10 0 29 4648
2016-03-28 4 14 1 65 8721
2016-03-29 1 16 0 70 7413
2016-03-30 0 15 0 66 20524
2016-03-31 3 32 0 64 9029
Février 2016 35 640 4 96 192454
Janvier 2016 35 622 8 95 230232
* 2015 373 6684 79 100 1549803
Décembre 2015 28 499 7 68 140303
Novembre 2015 40 724 5 35 146607
2015-11-01 1 18 0 27 4452
2015-11-02 0 9 0 24 5327
2015-11-03 1 7 0 22 11240
2015-11-04 0 0 0 18 11102
2015-11-05 0 4 0 24 12062
2015-11-06 1 19 0 20 6702
2015-11-07 7 38 0 21 3288
2015-11-08 0 25 0 20 5256
2015-11-09 0 32 0 22 3384
2015-11-10 0 11 0 21 2914
2015-11-11 0 8 0 22 2384
2015-11-12 0 24 0 30 2736
2015-11-13 0 32 0 20 2709
2015-11-14 2 21 1 24 3133
2015-11-15 2 28 0 21 18160
2015-11-16 0 28 0 22 4664
2015-11-17 0 22 0 35 3181
2015-11-18 6 48 1 20 3200
2015-11-19 1 28 0 29 3049
2015-11-20 10 39 2 20 2941
2015-11-21 1 10 0 17 3452
2015-11-22 0 33 0 18 4436
2015-11-23 1 21 1 32 4524
2015-11-24 1 28 0 23 5198
2015-11-25 1 23 0 19 4024
2015-11-26 1 29 0 15 2788
2015-11-27 0 39 0 16 3090
2015-11-28 1 29 0 20 2052
2015-11-29 1 29 0 18 2495
2015-11-30 2 42 0 24 2664
Octobre 2015 32 760 10 84 227528
Septembre 2015 40 948 13 100 169012
Août 2015 36 566 12 61 119954
2015-08-01 2 13 0 18 2717
2015-08-02 0 7 0 13 2055
2015-08-03 7 20 2 15 2199
2015-08-04 1 9 0 40 3590
2015-08-05 0 13 0 16 2911
2015-08-06 0 5 0 14 2574
2015-08-07 0 22 0 17 3967
2015-08-08 0 14 0 17 3023
2015-08-09 5 32 1 18 2992
2015-08-10 2 30 1 17 4088
2015-08-11 1 16 1 15 2652
2015-08-12 3 23 0 16 2544
2015-08-13 0 7 0 14 2436
2015-08-14 0 8 0 55 4945
2015-08-15 1 11 0 52 4116
2015-08-16 0 12 0 13 2678
2015-08-17 0 2 0 54 3352
2015-08-18 0 6 0 49 3473
2015-08-19 0 2 0 29 2985
2015-08-20 1 13 1 19 3315
2015-08-21 0 13 0 54 5973
2015-08-22 0 4 0 13 4672
2015-08-23 3 21 1 21 3708
2015-08-24 2 33 2 19 4048
2015-08-25 1 46 1 25 5182
2015-08-26 0 17 0 18 5281
2015-08-27 0 23 0 28 5761
2015-08-28 1 44 1 17 5899
2015-08-29 0 37 0 43 5544
2015-08-30 1 26 1 43 3953
2015-08-31 5 37 0 61 7321
Juillet 2015 29 462 7 31 89666
Juin 2015 24 453 5 30 112317
2015-06-01 1 21 1 25 4795
2015-06-02 0 13 0 13 1648
2015-06-03 1 16 1 14 4304
2015-06-04 1 25 0 14 3105
2015-06-05 0 20 0 15 1807
2015-06-06 1 21 0 17 2532
2015-06-07 4 18 0 16 1899
2015-06-08 0 12 0 14 2343
2015-06-09 1 10 0 18 2371
2015-06-10 0 10 0 20 7902
2015-06-11 1 19 0 11 4495
2015-06-12 0 7 0 13 1558
2015-06-13 1 6 0 13 1791
2015-06-14 0 11 0 14 2048
2015-06-15 3 13 0 19 1997
2015-06-16 0 10 0 18 1599
2015-06-17 1 17 0 17 2018
2015-06-18 0 13 0 12 1641
2015-06-19 0 7 0 15 1876
2015-06-20 0 9 0 12 1521
2015-06-21 0 10 0 15 1695
2015-06-22 1 19 0 16 2896
2015-06-23 1 23 1 22 11490
2015-06-24 2 23 0 30 13135
2015-06-25 0 11 0 18 9448
2015-06-26 3 23 0 20 11127
2015-06-27 0 7 0 17 2548
2015-06-28 0 5 0 13 2651
2015-06-29 2 29 2 18 2252
2015-06-30 0 25 0 19 1825
Mai 2015 30 390 2 24 73874
Avril 2015 29 408 4 25 95371
2015-04-01 1 15 0 20 2794
2015-04-02 1 21 0 16 2834
2015-04-03 0 14 0 17 2508
2015-04-04 0 8 0 15 1598
2015-04-05 0 4 0 16 4225
2015-04-06 1 5 0 22 4037
2015-04-07 1 8 0 17 3300
2015-04-08 0 16 0 22 2846
2015-04-09 0 3 0 18 3300
2015-04-10 2 18 0 22 3304
2015-04-11 1 19 1 18 3102
2015-04-12 0 7 1 12 2663
2015-04-13 1 10 0 14 3621
2015-04-14 0 16 0 25 2946
2015-04-15 0 5 0 17 2800
2015-04-16 0 3 0 19 3815
2015-04-17 1 9 0 16 3313
2015-04-18 0 11 0 16 3035
2015-04-19 0 5 0 16 4184
2015-04-20 1 8 0 16 2818
2015-04-21 0 1 0 18 2616
2015-04-22 1 13 0 18 2909
2015-04-23 0 19 0 24 4246
2015-04-24 0 18 0 18 3149
2015-04-25 8 32 1 17 3211
2015-04-26 4 35 0 20 3250
2015-04-27 3 35 0 18 3609
2015-04-28 0 6 0 13 3318
2015-04-29 2 23 1 16 3839
2015-04-30 1 21 0 16 2181
Mars 2015 38 550 7 37 130116
2015-03-01 6 23 0 17 2804
2015-03-02 1 11 0 19 6535
2015-03-03 1 24 0 20 7827
2015-03-04 1 8 0 21 6847
2015-03-05 2 12 0 18 4653
2015-03-06 2 23 1 37 2453
2015-03-07 0 10 0 14 2686
2015-03-08 0 19 0 14 2573
2015-03-09 1 20 0 16 2393
2015-03-10 1 14 1 14 2610
2015-03-11 0 8 0 20 2571
2015-03-12 1 14 0 18 2502
2015-03-13 0 16 0 20 3764
2015-03-14 0 8 0 20 4537
2015-03-15 3 22 1 19 5142
2015-03-16 0 8 0 14 2163
2015-03-17 0 16 0 15 1726
2015-03-18 0 2 0 14 1638
2015-03-19 2 12 0 21 4946
2015-03-20 2 14 1 21 7189
2015-03-21 2 27 1 20 9145
2015-03-22 1 11 0 27 8492
2015-03-23 6 18 1 21 6865
2015-03-24 1 23 1 17 4732
2015-03-25 0 36 0 24 3346
2015-03-26 1 33 0 19 3386
2015-03-27 0 12 0 18 3367
2015-03-28 0 8 0 20 4407
2015-03-29 4 47 0 17 4241
2015-03-30 0 38 0 15 2577
2015-03-31 0 13 0 24 1999
Février 2015 15 434 2 24 123854
2015-02-01 1 23 0 15 2764
2015-02-02 4 16 0 19 3123
2015-02-03 0 24 0 19 3982
2015-02-04 0 20 0 20 13958
2015-02-05 0 8 0 15 4445
2015-02-06 2 15 0 17 4092
2015-02-07 0 11 0 17 3923
2015-02-08 0 16 0 15 2919
2015-02-09 0 47 0 18 3036
2015-02-10 0 16 0 17 3314
2015-02-11 0 4 0 15 3212
2015-02-12 0 13 0 18 3091
2015-02-13 0 24 0 15 3570
2015-02-14 2 24 1 16 3435
2015-02-15 4 38 0 16 3932
2015-02-16 1 26 0 15 4563
2015-02-17 0 6 0 15 2297
2015-02-18 0 2 0 12 2335
2015-02-19 0 7 0 17 2509
2015-02-20 0 13 0 14 2356
2015-02-21 0 7 0 22 4319
2015-02-22 0 9 0 21 4162
2015-02-23 0 19 0 19 3587
2015-02-24 0 5 0 18 2084
2015-02-25 0 10 0 16 3096
2015-02-26 0 15 0 21 10939
2015-02-27 0 2 0 24 9803
2015-02-28 1 14 1 22 9008
Janvier 2015 32 490 5 44 121201
* 2014 428 7364 58 58 2478164
Décembre 2014 24 360 4 33 191610
Novembre 2014 37 572 7 46 525858
Octobre 2014 45 928 8 58 364915
Septembre 2014 24 549 8 32 162413
Août 2014 17 251 4 27 191624
2014-08-01 0 11 0 17 4869
2014-08-02 2 8 0 20 4008
2014-08-03 5 21 0 22 3930
2014-08-04 0 13 0 27 7210
2014-08-05 2 12 1 24 7177
2014-08-06 0 16 0 27 6701
2014-08-07 0 7 0 25 3965
2014-08-08 0 13 0 27 6141
2014-08-09 0 2 0 21 4733
2014-08-10 1 21 1 23 5317
2014-08-11 0 0 0 22 5671
2014-08-12 0 7 0 24 6599
2014-08-13 0 1 0 15 4833
2014-08-14 0 1 1 17 5819
2014-08-15 0 0 0 18 6630
2014-08-16 1 9 0 21 6366
2014-08-17 0 11 0 19 6206
2014-08-18 0 3 0 19 7614
2014-08-19 1 2 0 25 6728
2014-08-20 1 6 0 27 8084
2014-08-21 0 8 0 27 9580
2014-08-22 1 6 0 25 9362
2014-08-23 0 7 0 22 6382
2014-08-24 2 6 0 22 5960
2014-08-25 0 5 0 25 5413
2014-08-26 0 9 0 24 6547
2014-08-27 0 5 0 23 5741
2014-08-28 0 6 0 21 6634
2014-08-29 1 9 1 25 5677
2014-08-30 0 3 0 22 6121
2014-08-31 0 23 0 23 5606
Juillet 2014 25 369 3 30 236312
Juin 2014 29 602 3 32 220918
Mai 2014 34 842 6 29 157174
2014-05-01 2 54 0 15 2998
2014-05-02 0 19 1 14 4416
2014-05-03 1 14 0 12 2336
2014-05-04 1 28 0 18 11859
2014-05-05 0 15 0 14 1396
2014-05-06 0 11 1 22 4797
2014-05-07 0 9 0 18 3829
2014-05-08 2 27 0 22 3479
2014-05-09 2 33 0 14 3211
2014-05-10 0 18 0 16 3340
2014-05-11 2 36 1 19 4081
2014-05-12 3 64 0 20 4198
2014-05-13 2 32 0 19 3565
2014-05-14 0 20 0 26 2887
2014-05-15 2 23 0 22 3577
2014-05-16 0 11 0 22 3219
2014-05-17 2 16 0 22 3583
2014-05-18 1 16 1 19 4010
2014-05-19 3 51 1 22 4120
2014-05-20 1 19 0 20 8095
2014-05-21 0 28 0 18 6029
2014-05-22 1 42 0 20 3420
2014-05-23 1 46 0 26 7952
2014-05-24 0 31 0 27 3774
2014-05-25 2 60 0 25 7974
2014-05-26 2 56 0 24 11539
2014-05-27 1 15 0 22 8592
2014-05-28 1 16 0 21 5451
2014-05-29 0 9 0 21 5330
2014-05-30 2 12 1 29 7112
2014-05-31 0 11 0 25 7005
Avril 2014 45 662 1 25 104486
Mars 2014 32 595 4 26 120439
2014-03-01 0 12 1 20 3786
2014-03-02 1 4 1 24 3590
2014-03-03 0 7 0 20 2446
2014-03-04 0 23 0 20 3629
2014-03-05 2 22 0 21 3661
2014-03-06 1 18 0 20 2585
2014-03-07 0 15 0 23 2700
2014-03-08 1 13 0 21 2461
2014-03-09 0 4 0 19 2983
2014-03-10 0 19 0 16 2791
2014-03-11 1 19 0 19 3130
2014-03-12 0 16 0 21 3522
2014-03-13 1 31 0 22 5550
2014-03-14 0 16 0 26 4818
2014-03-15 1 11 0 21 5306
2014-03-16 4 19 0 24 6026
2014-03-17 3 25 0 20 3862
2014-03-18 2 35 0 22 5721
2014-03-19 0 19 0 21 4981
2014-03-20 1 25 1 18 3637
2014-03-21 1 27 0 24 5005
2014-03-22 1 13 0 20 4151
2014-03-23 4 27 0 20 5982
2014-03-24 2 46 0 21 4374
2014-03-25 0 26 0 18 2690
2014-03-26 2 23 1 19 3653
2014-03-27 0 19 0 20 3562
2014-03-28 3 18 0 20 3984
2014-03-29 0 17 0 17 3432
2014-03-30 0 7 0 17 2121
2014-03-31 1 19 0 18 4300
Février 2014 24 660 5 28 102996
Janvier 2014 92 974 5 33 99419
* 2013 408 8887 76 89 1597727
Décembre 2013 36 785 2 79 132305
Novembre 2013 36 751 8 29 141119
Octobre 2013 37 683 10 26 116570
Septembre 2013 33 723 15 29 160779
Août 2013 20 356 4 30 113960
Juillet 2013 21 331 2 24 120164
2013-07-01 0 9 0 24 4330
2013-07-02 1 11 0 16 2693
2013-07-03 4 28 0 23 4775
2013-07-04 2 26 0 16 4174
2013-07-05 0 16 0 20 4074
2013-07-06 0 8 0 21 4135
2013-07-07 1 6 0 17 2726
2013-07-08 1 11 0 17 4747
2013-07-09 0 9 0 18 3831
2013-07-10 0 5 0 16 3040
2013-07-11 1 6 0 19 4713
2013-07-12 1 16 0 19 4099
2013-07-13 0 3 0 14 4400
2013-07-14 0 2 0 15 3941
2013-07-15 0 2 0 15 3367
2013-07-16 1 4 0 18 4261
2013-07-17 2 23 0 22 3788
2013-07-18 0 16 0 15 3415
2013-07-19 1 2 0 16 2111
2013-07-20 1 7 0 17 1889
2013-07-21 0 5 0 18 4035
2013-07-22 2 21 0 15 10438
2013-07-23 0 9 1 18 4311
2013-07-24 1 12 0 15 4353
2013-07-25 1 15 0 24 3021
2013-07-26 0 10 0 20 4122
2013-07-27 1 12 0 12 2914
2013-07-28 0 7 0 17 2977
2013-07-29 0 13 0 19 2352
2013-07-30 0 9 1 17 2615
2013-07-31 0 8 0 18 4517
Juin 2013 40 731 5 34 119512
Mai 2013 34 881 3 47 157484
Avril 2013 38 799 8 33 124279
Mars 2013 40 1111 9 62 147762
Février 2013 32 838 5 79 125299
Janvier 2013 41 898 5 89 138494
* 2012 446 10690 67 157 1274957
Décembre 2012 57 1411 4 45 150137
Novembre 2012 46 1137 8 25 112399
Octobre 2012 45 1068 7 25 80970
2012-10-01 4 36 0 16 2575
2012-10-02 0 19 0 16 2057
2012-10-03 1 21 0 14 1771
2012-10-04 1 15 0 25 2211
2012-10-05 1 6 0 16 1729
2012-10-06 0 3 0 14 1339
2012-10-07 1 25 1 13 1948
2012-10-08 0 43 0 14 3370
2012-10-09 1 36 0 21 2924
2012-10-10 2 46 0 17 2361
2012-10-11 1 54 0 17 3608
2012-10-12 0 22 0 16 1810
2012-10-13 3 37 1 14 2059
2012-10-14 2 57 1 21 2843
2012-10-15 2 67 0 18 2859
2012-10-16 0 35 0 17 2927
2012-10-17 2 68 0 23 3599
2012-10-18 1 42 1 20 2644
2012-10-19 1 60 0 15 2712
2012-10-20 1 18 1 15 2052
2012-10-21 6 55 1 14 2785
2012-10-22 2 43 0 16 2612
2012-10-23 1 35 0 20 2967
2012-10-24 1 22 0 16 2174
2012-10-25 0 23 0 14 2367
2012-10-26 0 25 0 13 2731
2012-10-27 0 4 0 13 2966
2012-10-28 3 43 1 19 4497
2012-10-29 1 31 0 22 3134
2012-10-30 5 43 0 17 2931
2012-10-31 2 34 0 20 2408
Septembre 2012 37 876 11 38 107023
Août 2012 30 595 5 41 95032
Juillet 2012 24 563 2 157 78638
Juin 2012 39 984 10 33 88620
2012-06-01 0 22 0 22 2768
2012-06-02 2 19 0 16 2287
2012-06-03 2 49 1 20 2991
2012-06-04 1 20 0 18 2557
2012-06-05 0 18 0 25 2088
2012-06-06 2 20 0 16 2460
2012-06-07 1 31 1 22 3106
2012-06-08 1 47 1 18 3140
2012-06-09 2 34 1 21 2277
2012-06-10 0 50 1 18 3163
2012-06-11 3 54 0 16 2912
2012-06-12 4 24 1 19 2270
2012-06-13 3 26 0 33 2675
2012-06-14 0 21 1 14 2735
2012-06-15 0 14 0 16 2910
2012-06-16 0 14 0 16 2617
2012-06-17 1 12 0 16 3557
2012-06-18 1 55 1 23 4850
2012-06-19 2 39 0 20 3959
2012-06-20 2 37 1 21 4389
2012-06-21 1 26 0 21 3322
2012-06-22 0 24 0 17 2839
2012-06-23 1 35 0 15 2885
2012-06-24 0 32 0 17 2599
2012-06-25 1 51 0 20 3408
2012-06-26 2 49 0 18 2936
2012-06-27 3 22 1 23 2275
2012-06-28 1 76 0 22 3034
2012-06-29 1 32 0 18 2424
2012-06-30 2 31 0 17 3187
Mai 2012 22 703 5 26 77701
Avril 2012 33 714 4 33 95151
2012-04-01 2 22 0 25 3938
2012-04-02 1 49 0 26 3936
2012-04-03 1 13 0 22 3955
2012-04-04 1 23 1 21 3616
2012-04-05 1 23 0 21 4026
2012-04-06 2 13 0 22 3297
2012-04-07 1 14 1 20 3117
2012-04-08 0 10 0 17 3082
2012-04-09 3 13 0 20 2799
2012-04-10 0 23 0 24 3521
2012-04-11 0 15 0 21 3174
2012-04-12 0 19 0 19 3154
2012-04-13 0 17 0 17 2926
2012-04-14 0 22 1 22 2797
2012-04-15 1 19 0 20 2363
2012-04-16 5 42 0 23 4103
2012-04-17 0 37 0 21 3144
2012-04-18 1 19 0 25 3996
2012-04-19 1 16 0 20 2869
2012-04-20 1 24 0 19 3018
2012-04-21 1 34 0 23 3678
2012-04-22 0 30 0 23 2720
2012-04-23 1 13 0 18 3576
2012-04-24 3 22 0 19 2798
2012-04-25 2 24 0 20 3296
2012-04-26 0 26 0 22 2713
2012-04-27 0 24 0 14 2406
2012-04-28 1 12 0 33 2172
2012-04-29 3 64 1 14 2564
2012-04-30 1 32 0 13 2397
Mars 2012 35 977 5 48 160160
Février 2012 34 704 5 33 117877
2012-02-01 4 29 0 21 3610
2012-02-02 2 26 0 24 5279
2012-02-03 0 13 0 16 3779
2012-02-04 1 23 0 19 3802
2012-02-05 1 18 0 21 4835
2012-02-06 4 31 1 28 4403
2012-02-07 3 36 0 21 3830
2012-02-08 0 16 0 21 3805
2012-02-09 1 23 0 21 3894
2012-02-10 0 29 1 23 3679
2012-02-11 0 7 0 24 3043
2012-02-12 0 17 0 25 3175
2012-02-13 2 14 1 13 2124
2012-02-14 0 34 0 22 3657
2012-02-15 2 25 0 25 3278
2012-02-16 0 5 0 24 2556
2012-02-17 0 15 1 24 3186
2012-02-18 1 10 0 17 2384
2012-02-19 4 21 0 20 2559
2012-02-20 1 31 0 23 2799
2012-02-21 1 45 0 21 4992
2012-02-22 0 31 0 32 6101
2012-02-23 0 9 0 31 5330
2012-02-24 1 28 0 22 4611
2012-02-25 2 20 1 32 4925
2012-02-26 2 50 0 29 5297
2012-02-27 1 26 0 33 4546
2012-02-28 1 45 0 23 5919
2012-02-29 0 27 0 26 6479
Janvier 2012 44 958 1 30 111249
2012-01-01 3 33 0 15 2419
2012-01-02 3 54 0 22 4785
2012-01-03 2 41 1 24 4216
2012-01-04 0 23 0 20 4356
2012-01-05 3 33 0 23 4494
2012-01-06 3 53 0 30 4247
2012-01-07 0 24 0 20 3112
2012-01-08 3 21 0 19 3575
2012-01-09 3 40 0 24 5659
2012-01-10 2 39 0 24 2961
2012-01-11 3 38 0 20 4809
2012-01-12 0 9 0 24 3309
2012-01-13 1 33 0 22 5053
2012-01-14 1 20 0 18 2639
2012-01-15 3 42 0 22 2705
2012-01-16 2 59 0 26 4036
2012-01-17 2 34 0 20 4879
2012-01-18 1 23 0 19 2689
2012-01-19 1 25 0 23 3208
2012-01-20 1 37 0 21 4457
2012-01-21 0 12 0 20 2455
2012-01-22 1 33 0 22 5353
2012-01-23 1 33 0 19 2704
2012-01-24 1 34 0 23 5671
2012-01-25 1 23 0 22 2765
2012-01-26 0 17 0 15 2256
2012-01-27 1 21 0 15 2639
2012-01-28 0 37 0 14 2277
2012-01-29 0 9 0 19 2598
2012-01-30 1 19 0 18 2202
2012-01-31 1 39 0 17 2721
* 2011 822 21877 118 48 1861895
Décembre 2011 68 1315 7 36 141929
2011-12-01 0 46 0 28 3436
2011-12-02 2 46 0 29 5093
2011-12-03 3 35 0 24 3173
2011-12-04 5 39 0 26 6734
2011-12-05 5 109 0 36 4968
2011-12-06 3 65 0 25 7602
2011-12-07 4 93 1 28 6025
2011-12-08 2 76 0 22 4333
2011-12-09 1 94 0 29 6392
2011-12-10 5 39 1 25 5955
2011-12-11 3 49 1 27 5545
2011-12-12 4 48 0 23 3344
2011-12-13 3 64 0 28 6227
2011-12-14 1 28 0 21 2931
2011-12-15 4 66 1 31 4951
2011-12-16 3 30 0 28 3649
2011-12-17 1 29 0 19 4090
2011-12-18 3 76 1 25 6571
2011-12-19 5 67 2 23 5351
2011-12-20 5 57 0 27 5091
2011-12-21 0 12 0 22 5526
2011-12-22 0 4 0 25 2840
2011-12-23 1 8 0 18 3720
2011-12-24 1 19 0 23 5013
2011-12-25 1 26 0 17 2000
2011-12-26 0 22 0 14 3519
2011-12-27 2 20 0 25 3302
2011-12-28 0 13 0 24 4326
2011-12-29 1 16 0 20 3816
2011-12-30 0 11 0 19 4054
2011-12-31 0 8 0 28 2352
Novembre 2011 94 1539 4 36 150015
Octobre 2011 81 1597 13 41 169207
Septembre 2011 96 1991 19 24 158540
Août 2011 68 1372 16 48 135201
Juillet 2011 57 1156 10 30 112626
2011-07-01 2 18 0 21 5455
2011-07-02 5 34 1 13 3807
2011-07-03 0 47 1 29 3624
2011-07-04 3 75 1 23 5753
2011-07-05 1 54 1 17 5269
2011-07-06 1 25 0 17 4105
2011-07-07 0 25 0 30 3217
2011-07-08 3 74 0 17 4521
2011-07-09 8 29 1 18 2897
2011-07-10 1 54 0 21 5965
2011-07-11 3 38 2 18 4473
2011-07-12 2 66 0 14 3417
2011-07-13 5 73 0 19 3850
2011-07-14 0 38 0 15 3112
2011-07-15 0 29 0 17 2768
2011-07-16 1 17 0 21 4404
2011-07-17 0 18 0 15 4901
2011-07-18 1 25 0 18 2740
2011-07-19 1 15 0 14 2640
2011-07-20 1 48 0 20 3211
2011-07-21 2 24 1 15 2768
2011-07-22 2 46 0 17 3321
2011-07-23 1 24 1 12 2352
2011-07-24 8 31 0 15 2544
2011-07-25 3 56 0 19 3247
2011-07-26 1 31 1 12 3398
2011-07-27 1 35 0 19 3127
2011-07-28 0 28 0 24 3297
2011-07-29 0 28 0 16 2641
2011-07-30 0 12 0 17 2551
2011-07-31 1 39 0 17 3251
Juin 2011 40 1214 6 31 149115
2011-06-01 1 32 0 29 5456
2011-06-02 2 29 0 26 4171
2011-06-03 1 35 0 19 4043
2011-06-04 0 20 0 19 4950
2011-06-05 0 28 2 15 4322
2011-06-06 3 69 0 17 3738
2011-06-07 2 48 0 31 4173
2011-06-08 0 31 0 21 4038
2011-06-09 0 22 0 28 4286
2011-06-10 1 43 0 27 5000
2011-06-11 1 31 0 29 4509
2011-06-12 2 47 1 24 5476
2011-06-13 0 28 0 21 5276
2011-06-14 5 69 0 26 5102
2011-06-15 0 58 0 17 4739
2011-06-16 1 56 0 22 7003
2011-06-17 0 46 0 19 4024
2011-06-18 0 14 1 26 4210
2011-06-19 0 27 0 23 4877
2011-06-20 3 40 0 25 5373
2011-06-21 2 59 0 22 5456
2011-06-22 4 76 1 25 4738
2011-06-23 1 47 0 24 5119
2011-06-24 2 52 0 20 4688
2011-06-25 0 18 0 18 4641
2011-06-26 4 29 0 22 8721
2011-06-27 1 50 1 21 4259
2011-06-28 0 40 0 18 4018
2011-06-29 1 31 0 19 7555
2011-06-30 3 39 0 19 5154
Mai 2011 64 1997 8 39 181997
Avril 2011 46 1637 9 38 176986
Mars 2011 54 2388 6 31 211307
2011-03-01 3 122 0 18 6680
2011-03-02 2 125 0 22 7771
2011-03-03 2 101 0 20 6758
2011-03-04 1 42 0 17 4167
2011-03-05 3 23 0 20 4811
2011-03-06 1 22 0 18 6699
2011-03-07 1 42 1 17 6565
2011-03-08 1 37 0 15 7116
2011-03-09 1 39 0 16 10831
2011-03-10 3 77 0 15 19804
2011-03-11 2 61 0 19 12773
2011-03-12 4 51 1 16 5555
2011-03-13 4 68 0 15 5274
2011-03-14 2 115 0 16 5003
2011-03-15 1 92 0 17 6428
2011-03-16 3 212 1 21 9712
2011-03-17 0 120 1 19 5516
2011-03-18 0 109 0 19 3950
2011-03-19 1 32 0 16 3488
2011-03-20 0 56 0 20 3576
2011-03-21 1 81 0 15 6916
2011-03-22 1 58 0 30 6314
2011-03-23 2 95 0 19 8455
2011-03-24 3 147 0 19 6592
2011-03-25 0 66 0 22 9114
2011-03-26 1 15 0 21 4424
2011-03-27 0 24 0 31 4299
2011-03-28 3 77 0 28 5137
2011-03-29 3 92 1 26 4709
2011-03-30 4 104 1 25 5221
2011-03-31 1 83 0 28 7649
Février 2011 59 2656 5 46 128248
Janvier 2011 95 3015 15 44 146724
2011-01-01 4 28 1 33 3209
2011-01-02 3 53 0 27 3194
2011-01-03 4 120 0 23 4999
2011-01-04 4 123 0 25 4781
2011-01-05 2 129 0 36 4810
2011-01-06 3 97 1 27 4554
2011-01-07 0 98 0 25 4909
2011-01-08 1 28 1 20 3049
2011-01-09 3 61 0 20 3543
2011-01-10 3 87 0 36 4897
2011-01-11 1 79 1 25 4007
2011-01-12 2 149 0 34 5515
2011-01-13 6 143 3 40 5584
2011-01-14 5 244 0 29 8061
2011-01-15 1 41 0 36 4401
2011-01-16 9 38 0 23 3832
2011-01-17 2 153 0 44 6302
2011-01-18 4 85 0 32 5425
2011-01-19 4 92 0 29 4997
2011-01-20 5 99 1 25 4295
2011-01-21 3 75 0 30 4089
2011-01-22 3 45 1 32 3479
2011-01-23 1 85 1 32 4851
2011-01-24 1 79 0 35 4531
2011-01-25 2 98 0 30 5112
2011-01-26 4 137 3 25 5274
2011-01-27 1 118 0 27 5128
2011-01-28 4 130 1 32 5328
2011-01-29 1 78 0 25 4103
2011-01-30 2 58 0 33 3935
2011-01-31 7 165 1 33 6530
* 2010 615 23079 70 91 1409620
Décembre 2010 54 2635 5 43 199984
2010-12-01 4 200 0 33 5797
2010-12-02 2 80 0 27 4428
2010-12-03 0 92 0 23 3768
2010-12-04 1 50 1 19 2892
2010-12-05 1 52 0 26 3390
2010-12-06 0 92 0 29 3863
2010-12-07 1 113 0 34 4176
2010-12-08 2 59 0 34 4663
2010-12-09 1 112 1 30 4738
2010-12-10 0 81 0 26 4475
2010-12-11 2 57 0 29 3894
2010-12-12 2 51 0 42 3962
2010-12-13 3 63 0 32 4381
2010-12-14 2 89 0 32 7458
2010-12-15 2 146 0 32 8138
2010-12-16 1 120 0 33 13324
2010-12-17 2 134 0 43 25752
2010-12-18 1 65 0 17 12634
2010-12-19 3 59 0 21 14562
2010-12-20 4 92 1 26 8417
2010-12-21 1 83 1 24 6202
2010-12-22 4 109 0 34 8319
2010-12-23 2 97 0 31 4509
2010-12-24 0 19 0 17 4671
2010-12-25 2 33 0 33 4728
2010-12-26 2 42 0 31 4717
2010-12-27 3 132 1 41 5593
2010-12-28 1 78 0 43 4517
2010-12-29 2 117 0 31 4767
2010-12-30 2 87 0 24 4387
2010-12-31 1 31 0 24 2862
Novembre 2010 59 2475 6 49 127779
Octobre 2010 56 2811 15 58 134942
Septembre 2010 53 1528 8 29 95249
Août 2010 32 1287 6 33 89617
Juillet 2010 34 1637 5 32 97290
Juin 2010 46 2137 3 28 109648
2010-06-01 0 68 0 21 3537
2010-06-02 1 57 0 17 3123
2010-06-03 1 75 0 15 4006
2010-06-04 0 85 0 20 3645
2010-06-05 0 34 0 20 2486
2010-06-06 3 30 0 17 2856
2010-06-07 2 86 0 22 10278
2010-06-08 0 64 0 18 5044
2010-06-09 4 159 1 23 4282
2010-06-10 2 122 0 19 3974
2010-06-11 2 64 0 23 3155
2010-06-12 1 20 0 16 3002
2010-06-13 1 34 0 22 2837
2010-06-14 1 34 0 25 3405
2010-06-15 1 74 0 25 3620
2010-06-16 0 98 0 28 4159
2010-06-17 1 119 0 23 4270
2010-06-18 3 81 0 19 3422
2010-06-19 1 50 0 23 2451
2010-06-20 1 22 0 19 2286
2010-06-21 5 64 0 20 2985
2010-06-22 2 99 1 23 3730
2010-06-23 2 99 0 23 4043
2010-06-24 4 128 1 18 4041
2010-06-25 1 78 0 19 3593
2010-06-26 0 6 0 15 2050
2010-06-27 1 31 0 18 2375
2010-06-28 4 99 0 21 3892
2010-06-29 0 67 0 20 3134
2010-06-30 2 90 0 23 3967
Mai 2010 50 1497 6 28 99050
Avril 2010 45 1888 3 26 102219
Mars 2010 53 1534 2 46 118201
Février 2010 65 1574 4 91 117274
Janvier 2010 68 2076 7 43 118367
* 2009 752 28223 96 159 970278
Décembre 2009 39 2001 5 54 122418
Novembre 2009 59 3138 6 38 117432
Octobre 2009 67 3218 11 18 122232
Septembre 2009 73 2730 14 159 92082
Août 2009 47 1405 8 15 61919
Juillet 2009 68 1737 11 21 67267
Juin 2009 63 2759 4 37 72789
Mai 2009 46 2166 6 16 66386
Avril 2009 101 2850 6 16 73303
Mars 2009 80 3538 7 17 83610
2009-03-01 2 54 0 15 1561
2009-03-02 8 178 2 16 4208
2009-03-03 1 86 0 11 2528
2009-03-04 1 39 0 15 1730
2009-03-05 1 32 0 12 1412
2009-03-06 0 34 0 10 2207
2009-03-07 8 30 0 10 1601
2009-03-08 2 122 0 17 2214
2009-03-09 4 189 0 12 3447
2009-03-10 2 93 0 12 2867
2009-03-11 1 79 0 9 2060
2009-03-12 1 101 0 9 2336
2009-03-13 3 107 0 11 2370
2009-03-14 0 47 0 10 1454
2009-03-15 3 95 0 10 2287
2009-03-16 2 149 0 15 3335
2009-03-17 3 88 0 10 2474
2009-03-18 1 117 2 11 2993
2009-03-19 0 145 0 14 3058
2009-03-20 0 159 0 14 3545
2009-03-21 2 45 1 9 1470
2009-03-22 2 143 0 11 2597
2009-03-23 3 163 0 13 3325
2009-03-24 6 212 0 11 3583
2009-03-25 6 222 0 12 4229
2009-03-26 7 166 0 14 3647
2009-03-27 3 168 0 12 3580
2009-03-28 0 67 1 8 1864
2009-03-29 3 123 1 11 2814
2009-03-30 5 184 0 15 3914
2009-03-31 0 101 0 10 2900
Février 2009 57 1586 6 16 50521
Janvier 2009 52 1095 12 10 40319
* 2008 334 4655 56 26 234055
Décembre 2008 36 663 7 12 28104
Novembre 2008 51 1090 9 10 35948
Octobre 2008 50 609 5 10 26582
Septembre 2008 40 619 5 10 24365
Août 2008 28 252 6 9 21916
Juillet 2008 20 256 5 7 16733
Juin 2008 17 363 6 26 18903
Mai 2008 17 180 2 10 13320
Avril 2008 16 146 3 8 16063
Mars 2008 18 158 1 9 12835
Février 2008 19 155 2 9 9679
2008-02-01 1 10 0 4 268
2008-02-02 0 7 0 0 349
2008-02-03 0 1 0 5 248
2008-02-04 6 11 0 4 440
2008-02-05 0 11 0 0 497
2008-02-06 0 3 0 5 239
2008-02-07 0 5 0 0 333
2008-02-08 2 3 0 4 257
2008-02-09 0 3 0 5 219
2008-02-10 0 0 0 3 182
2008-02-11 1 8 0 6 281
2008-02-12 0 4 0 4 281
2008-02-13 0 2 0 4 191
2008-02-14 0 4 0 3 211
2008-02-15 0 8 0 5 258
2008-02-16 1 3 0 4 214
2008-02-17 0 8 1 4 460
2008-02-18 2 6 0 4 401
2008-02-19 1 4 0 5 515
2008-02-20 1 7 0 4 467
2008-02-21 1 3 0 5 489
2008-02-22 1 9 0 4 359
2008-02-23 0 2 0 4 179
2008-02-24 1 3 0 3 277
2008-02-25 0 4 0 4 516
2008-02-26 0 12 0 5 456
2008-02-27 0 5 1 5 449
2008-02-28 0 3 0 3 330
2008-02-29 1 6 0 9 313
Janvier 2008 22 164 5 7 9607
2008-01-01 0 0 0 3 156
2008-01-02 1 6 0 3 272
2008-01-03 0 4 1 5 375
2008-01-04 0 10 0 5 389
2008-01-05 0 3 1 0 262
2008-01-06 0 3 0 7 269
2008-01-07 1 4 1 0 273
2008-01-08 1 5 0 4 363
2008-01-09 1 6 0 4 353
2008-01-10 2 18 0 4 470
2008-01-11 0 2 0 5 307
2008-01-12 0 0 0 2 173
2008-01-13 0 8 0 3 213
2008-01-14 0 5 0 6 311
2008-01-15 0 4 0 4 276
2008-01-16 0 3 0 4 283
2008-01-17 1 4 0 5 318
2008-01-18 0 7 0 5 340
2008-01-19 1 4 0 5 253
2008-01-20 0 2 1 4 270
2008-01-21 0 4 0 5 319
2008-01-22 2 2 0 0 196
2008-01-23 1 3 0 3 205
2008-01-24 0 6 0 4 222
2008-01-25 0 4 0 4 317
2008-01-26 0 2 0 4 258
2008-01-27 2 4 0 5 300
2008-01-28 4 13 1 5 640
2008-01-29 2 13 0 5 449
2008-01-30 2 9 0 0 384
2008-01-31 1 6 0 4 391
* 2007 276 2246 55 9 102999
Décembre 2007 21 167 5 8 17081
Novembre 2007 20 168 3 6 8467
Octobre 2007 21 147 4 5 8193
Septembre 2007 22 183 4 9 9896
Août 2007 23 226 2 6 9096
Juillet 2007 18 127 1 4 10165
2007-07-01 0 3 0 4 345
2007-07-02 0 3 0 4 509
2007-07-03 1 4 0 3 302
2007-07-04 1 6 0 0 431
2007-07-05 0 1 0 3 348
2007-07-06 0 6 0 3 356
2007-07-07 1 6 0 3 274
2007-07-08 0 4 0 4 314
2007-07-09 0 5 0 0 411
2007-07-10 0 2 0 4 320
2007-07-11 0 0 0 4 238
2007-07-12 2 2 0 3 264
2007-07-13 1 4 0 0 268
2007-07-14 2 3 0 2 203
2007-07-15 0 0 0 0 245
2007-07-16 2 10 1 4 539
2007-07-17 0 5 0 4 322
2007-07-18 0 5 0 4 436
2007-07-19 0 10 0 0 392
2007-07-20 1 4 0 3 235
2007-07-21 1 2 0 2 215
2007-07-22 0 2 0 0 250
2007-07-23 3 6 0 3 602
2007-07-24 1 8 0 3 356
2007-07-25 0 7 0 4 392
2007-07-26 0 2 0 3 281
2007-07-27 0 9 0 4 327
2007-07-28 0 0 0 3 246
2007-07-29 1 3 0 2 219
2007-07-30 1 2 0 4 276
2007-07-31 0 3 0 4 249
Juin 2007 25 309 2 6 13196
2007-06-01 0 30 0 5 730
2007-06-02 1 3 0 5 231
2007-06-03 0 4 0 4 155
2007-06-04 2 22 0 5 514
2007-06-05 0 19 0 0 547
2007-06-06 1 7 0 5 383
2007-06-07 0 8 1 0 407
2007-06-08 0 6 0 6 413
2007-06-09 2 10 0 3 371
2007-06-10 0 4 1 3 247
2007-06-11 1 6 0 4 306
2007-06-12 2 11 0 3 298
2007-06-13 5 20 0 6 533
2007-06-14 0 11 0 4 388
2007-06-15 2 22 0 0 499
2007-06-16 1 3 0 4 249
2007-06-17 0 2 0 3 349
2007-06-18 0 9 0 5 414
2007-06-19 0 5 0 0 344
2007-06-20 0 10 0 0 450
2007-06-21 2 11 0 4 450
2007-06-22 0 3 0 0 439
2007-06-23 0 6 0 4 447
2007-06-24 2 5 0 3 351
2007-06-25 0 3 0 4 532
2007-06-26 2 16 0 3 751
2007-06-27 0 15 0 4 611
2007-06-28 1 7 0 0 557
2007-06-29 0 21 0 5 717
2007-06-30 1 10 0 0 513
Mai 2007 30 315 8 7 11830
Avril 2007 44 428 13 9 13382
Mars 2007 52 176 13 4 1693